JILIN-01-07

Satellite information

Favourite Embed

Satellite Type and Status

PAYLOADIN ORBIT

Key statistics

Satellite JILIN-01-07 at a glance.

Uptime

2788

Days in orbit

Revolutions

≈ 15.3

Per day

Orbit

SSO

Sun Synchronous Orbit

Inclination

97.2

Latest

Satellite identification and parameters

Extended collection of information and parameters for JILIN-01-07.

Object identification

Identified? True

Debris? False

Object name: JILIN-01-07

International designator: 2018-008E

Object number (NORAD): 43159

Object ID (CCSDS): 43159

Country: PEOPLES REPUBLIC OF CHINA (PRC)

Current information (Y/N): Y

RCS size: MEDIUM

Orbital parameters

Period: 94.174 minutes

Inclination: 97.2036 deg

SMA: 6856.707 km

Apoapsis: 484.704 km

Periapsis: 472.44 km

RAAN: 273.1991 deg

Eccentricy: 0.00089432

Argument of periapsis: 5.495 deg

Mean anomaly: 354.6387 deg

Mean motion: 15.29077091 rev/day

Mean motion (dot): 0.00012705 rev/day2

B* drag term: 0.00045184032 1/REarth

Two-line elements (TLE)

Creation date: Sept. 7, 2025, 3:09 a.m.

Reference frame: TEME

Reference center: EARTH

Epoch: Sept. 7, 2025, 12:25 a.m. UTC

TLE line 0: 0 JILIN-01-07

TLE line 1: 1 43159U 18008E 25250.01737781 .00012705 00000-0 45184-3 0 9997

TLE line 2: 2 43159 97.2036 273.1991 0008943 5.4950 354.6387 15.29077091421644

Live tracking on map

Real-time ground track for satellite JILIN-01-07.

In-orbit conjunctions

There are no conjunctions computed for JILIN-01-07, at the moment. Check back to stay up to date, as we update our databases every day.

Go to all conjunctions

Associated space launch

Jilin-1 is a series of Chinese commercial remote sensing satellites. These two satellites are sharing the ride with several cubesats.

JILIN-01-07 was lifted into orbit during the mission ‘Long March 11 | Jilin-1-07 (Deqing-1), Jilin-1-08’, on board a Long March 11 space rocket.

The launch took place on Jan. 19, 2018, 4:12 a.m. from Launch Area 95A.

For more information about the launch, click the button.

Launch to space Long March 11 | Jilin-1-07 (Deqing-1), Jilin-1-08
Long March 11 | Jilin-1-07 (Deqing-1), Jilin-1-08

Agency: N/A

Status: Launch Successful

Launch date: Jan. 19, 2018, 4:12 a.m. UTC

Rocket: Long March 11

Launch pad: Launch Area 95A

Location: Jiuquan Satellite Launch Center, People's Republic of China

...

Latest news about this satellite

There are no fresh news available about this satellite. Check back as we update our databases every day.


Newsletter sign-up

Weekly statistics, charts and insights to help you stay on top of the space industry.